Tracking 19920 objects as of 15-Oct-2019
HD Live streaming from Space Station
objects crossing your sky now

IRIDIUM 33 DEB

Track IRIDIUM 33 DEB now!
10-day predictions


NORAD ID: 34160
Int'l Code: 1997-051EP
Perigee: 673.9 km
Apogee: 732.3 km
Inclination: 86.4 °
Period: 98.7 minutes
Semi major axis: 7074 km
RCS: 0.073 m2 (small)
Launch date: September 14, 1997
Source: United States (US)
Launch site: TYURATAM MISSILE AND SPACE COMPLEX (TTMTR)

Note: This is SATELLITE DEBRIS
aabbcc
Your satellite tracking list
Your tracking list is empty




NASA's NSSDC Master Catalog

Two Line Element Set (TLE):
1 34160U 97051EP  19287.90070942 +.00003179 +00000-0 +66296-3 0  9996
2 34160 086.4062 283.3998 0041244 246.9693 112.7165 14.59145007560413
Source of the keplerian elements: AFSPC